Location: Lanoux
(43.1180°N, 1.4255°E)
Time: 14:51:39
(UTC+00:00)

UWE-3 - Visible Passes

Search period start: 19 April 2026 00:00
Search period end: 29 April 2026 00:00
Orbit: 543 x 612 km, 97.9° (Epoch: 18 April)

Date Brightness Start Highest point End Pass type
(mag) Time Alt. Az. Time Alt. Az. Time Alt. Az.
19 Apr ? 01:48:57 10° NE 01:51:24 17° E 01:51:24 17° E visible
19 Apr ? 03:23:19 10° N 03:26:58 36° WNW 03:27:42 33° W visible
20 Apr ? 01:52:56 10° NE 01:55:43 19° E 01:55:43 19° E visible
20 Apr ? 03:27:33 10° N 03:31:06 33° WNW 03:32:00 29° W visible
21 Apr ? 01:56:56 10° NE 01:59:56 21° E 02:00:01 21° E visible
21 Apr ? 03:31:46 10° N 03:35:14 30° WNW 03:36:18 26° W visible
22 Apr ? 02:00:58 10° NE 02:04:07 23° E 02:04:19 23° E visible
22 Apr ? 03:36:01 10° N 03:39:22 27° WNW 03:40:37 22° W visible
23 Apr ? 02:05:00 10° NE 02:08:17 25° E 02:08:37 25° ESE visible
23 Apr ? 03:40:16 10° NNW 03:43:28 24° WNW 03:44:54 20° W visible
24 Apr ? 02:09:03 10° NE 02:12:27 28° E 02:12:54 27° ESE visible
24 Apr ? 03:44:31 10° NNW 03:47:35 22° WNW 03:49:12 17° W visible
25 Apr ? 02:13:06 10° NNE 02:16:37 31° E 02:17:12 29° ESE visible
25 Apr ? 03:48:47 10° NNW 03:51:42 20° WNW 03:53:28 15° W visible
26 Apr ? 02:17:10 10° NNE 02:20:46 34° E 02:21:28 32° ESE visible
26 Apr ? 03:53:03 10° NNW 03:55:48 18° WNW 03:57:45 13° W visible
27 Apr ? 02:21:14 10° NNE 02:24:55 38° E 02:25:45 34° SE visible
27 Apr ? 03:57:20 10° NNW 03:59:53 17° WNW 04:02:02 12° W visible
28 Apr ? 02:25:19 10° NNE 02:29:04 43° E 02:30:01 36° SE visible
28 Apr ? 04:01:39 10° NNW 04:03:58 15° WNW 04:06:18 10° W visible
